Lapse_Rate
0.8 0.8 0.7 0.5 -0.1 -0.3 -0.4 -0.5 -0.7 -1.0 -1.1 -1.3 -1.4 -1.7 -1.7 -1.9 -1.2 0.9 3.2 3.8 2.5 2.7 2.0 3.3 5.3 5.6 5.4 5.0 5.9 5.3 6.5 6.5 6.5 6.5 6.5 6.2 6.5 6.3 6.0 5.2 5.2 5.2 5.3 3.2 2.6
1.1 0.9 0.8 0.6 0.1 -0.1 -0.2 -0.5 -0.9 -0.9 -1.1 -1.3 -1.6 -1.6 -1.4 -2.1 -0.3 4.7 5.6 4.3 3.0 2.3 4.3 4.2 4.3 4.6 4.4 5.1 4.6 5.7 6.5 6.5 6.5 6.5 6.5 6.4 6.3 6.3 5.9 5.9 6.2 5.6 5.0 3.3 3.1
1.0 0.9 0.8 0.6 0.4 0.2 -0.1 -0.6 -1.0 -1.0 -1.2 -1.6 -1.5 -1.3 -1.3 -1.9 4.3 6.3 6.9 5.4 5.6 3.6 3.8 4.3 4.5 5.1 6.0 5.6 4.8 5.6 6.5 6.5 6.2 5.6 5.7 6.3 6.2 6.4 5.9 6.5 5.2 5.9 5.6 5.5 4.8
0.8 0.8 0.7 0.4 0.4 0.2 -0.3 -0.9 -1.1 -1.1 -1.4 -1.6 -1.3 -0.8 -1.1 -0.8 6.5 7.4 7.9 7.0 6.1 4.1 5.1 5.4 5.8 6.1 6.3 6.5 5.1 6.5 5.6 5.7 5.5 5.4 5.4 6.5 5.6 6.3 5.5 6.0 5.4 4.6 6.5 6.5 5.4
0.9 0.7 0.8 0.5 0.2 0.0 -0.4 -0.9 -1.2 -1.2 -1.4 -1.3 -0.7 -0.3 -0.3 4.7 6.8 8.0 7.3 7.2 6.6 6.8 6.3 5.9 5.9 5.9 6.5 6.2 5.6 6.5 6.5 5.7 5.7 5.7 5.0 5.1 6.0 6.2 6.0 5.8 5.3 5.0 5.0 4.6 4.9
0.7 0.8 0.7 0.4 0.1 -0.2 -0.5 -0.9 -1.2 -1.2 -1.2 -0.9 -0.2 0.3 1.3 6.2 7.9 7.3 7.0 6.5 6.6 6.7 6.1 5.9 6.1 6.4 6.0 6.4 6.4 5.7 6.0 6.0 5.4 5.4 5.3 6.3 6.3 5.5 6.3 6.0 6.1 5.7 5.3 3.9 3.5
1.0 0.7 0.7 0.4 0.2 -0.2 -0.5 -0.9 -1.2 -1.1 -1.0 -0.4 0.6 1.3 3.8 6.3 7.3 6.7 6.5 7.0 7.3 7.6 7.1 6.7 6.9 6.4 5.8 6.5 6.0 5.9 6.5 6.5 6.2 5.4 6.2 5.4 6.5 6.5 5.8 5.8 6.5 6.4 6.0 6.2 4.7
0.6 1.1 0.6 0.6 0.3 0.0 -0.5 -1.2 -1.2 -0.9 -0.2 0.5 1.6 2.6 5.5 8.2 7.5 6.8 6.6 6.6 7.5 7.1 6.6 5.9 6.1 5.8 6.0 5.6 5.9 6.5 6.5 6.5 6.5 6.4 5.8 6.3 6.5 6.5 5.9 5.1 5.5 6.6 6.8 6.6 6.7
1.2 0.8 0.8 0.6 0.5 0.1 -0.5 -1.3 -0.9 0.2 0.9 1.7 2.7 3.9 6.4 8.1 6.9 6.6 6.8 6.8 6.7 6.4 5.8 7.2 5.9 5.6 5.6 6.5 6.5 6.5 6.5 6.5 6.5 6.4 6.5 6.5 6.5 6.5 5.0 5.8 6.1 6.2 6.5 6.9 6.3
1.8 1.5 0.9 0.8 0.4 0.4 -0.2 -0.5 0.3 2.0 3.0 4.2 5.2 5.4 7.0 7.2 6.8 6.5 7.0 7.1 6.9 5.6 5.1 4.9 3.3 6.5 6.5 6.5 6.5 6.5 6.5 6.5 6.5 6.5 6.5 6.5 6.5 6.5 6.0 5.8 5.9 5.3 4.1 5.3 6.8
3.4 2.9 1.7 1.2 1.0 0.9 -0.2 0.9 4.4 5.2 4.6 6.1 6.7 6.8 7.0 6.4 6.8 7.7 7.1 6.9 5.7 5.1 6.5 5.4 6.5 6.5 6.5 6.5 6.5 6.5 6.5 6.5 6.5 6.5 6.5 6.5 6.5 6.5 6.3 6.2 6.1 6.0 5.8 5.1 6.0
4.0 3.1 2.5 1.9 1.5 1.5 0.8 4.4 5.0 5.0 5.5 6.3 7.6 7.1 7.4 7.1 6.4 6.7 7.2 6.2 5.9 6.5 6.4 6.5 6.5 6.5 6.5 6.5 6.5 6.5 6.5 6.5 6.5 6.5 6.5 6.5 6.5 6.5 6.5 6.5 6.3 6.1 5.8 5.5 4.8
4.2 3.1 2.8 2.2 2.2 2.6 4.8 5.3 5.2 5.1 5.7 6.5 7.1 7.2 7.3 7.0 6.6 6.6 7.1 6.7 6.5 6.5 6.5 6.5 6.5 6.5 6.5 6.5 6.5 6.5 6.5 6.5 6.5 6.5 6.5 6.5 6.5 6.5 6.5 6.3 6.5 6.4 6.3 6.1 5.9
3.9 3.1 3.0 2.2 3.6 4.2 6.5 6.3 5.2 4.2 6.5 6.5 6.6 7.1 7.1 6.3 6.4 7.3 7.1 6.4 6.5 6.5 6.5 6.5 6.4 6.5 6.5 6.5 6.5 6.5 6.5 6.5 6.5 6.5 6.5 6.5 6.5 6.5 6.5 6.5 6.5 6.4 6.2 5.9 5.6
4.0 3.4 3.0 3.0 2.0 5.9 6.6 6.4 5.5 5.2 6.5 6.5 6.6 6.9 6.7 6.5 6.6 6.8 7.0 6.5 6.5 6.5 6.5 6.5 6.5 6.5 6.5 6.5 6.5 6.5 6.5 6.5 6.5 6.5 6.5 6.5 6.5 6.5 6.5 6.5 6.5 6.5 6.3 4.7 5.3
3.9 3.6 3.2 3.8 2.9 5.0 5.9 5.1 5.1 6.5 6.5 6.5 6.5 6.5 6.5 6.5 6.5 6.5 6.0 5.6 6.5 6.5 6.5 6.5 6.3 6.5 6.5 6.5 6.5 6.5 6.5 6.5 6.5 6.5 6.5 6.5 6.5 6.5 6.5 6.5 6.5 6.5 6.4 4.7 4.7
4.0 3.6 3.1 4.5 5.6 5.7 5.0 5.0 6.5 6.5 6.5 6.5 6.5 6.5 6.5 6.5 6.5 6.5 6.5 6.5 6.5 6.5 6.5 6.5 6.5 6.5 6.4 6.5 6.5 6.5 6.5 6.5 6.5 6.5 6.5 6.5 6.5 6.5 6.5 6.5 6.5 6.5 6.1 4.6 3.8
4.0 3.6 3.6 5.1 5.1 5.3 4.7 6.4 6.5 6.5 6.5 6.5 6.5 6.5 6.5 6.5 6.5 6.5 6.5 6.5 6.5 6.5 6.5 6.5 6.5 6.5 6.5 6.5 6.5 6.5 6.5 6.5 6.5 6.5 6.5 6.5 6.5 6.5 6.5 6.5 6.3 6.4 6.1 4.4 3.5
4.2 2.6 4.1 4.5 5.5 4.2 5.3 6.5 6.5 6.5 6.5 6.5 6.5 6.5 6.5 6.5 6.5 6.5 6.5 6.5 6.5 6.5 6.5 6.5 6.5 6.5 6.5 6.5 6.5 6.5 6.5 6.5 6.5 6.5 6.5 6.5 6.5 6.5 6.5 6.5 6.5 6.5 6.0 6.0 6.5
3.0 4.2 5.0 6.1 5.1 4.6 6.1 6.5 6.5 6.5 6.5 6.5 6.5 6.5 6.5 6.5 6.5 6.5 6.5 6.5 6.5 6.5 5.8 6.5 6.5 6.5 6.5 6.5 6.4 6.5 6.5 6.5 6.5 6.5 6.5 6.5 6.5 6.5 6.5 6.5 6.5 6.5 6.5 5.9 6.9
3.5 5.0 5.7 6.1 4.4 4.6 6.5 6.5 6.5 7.0 6.8 6.5 6.5 6.5 6.5 6.5 6.5 6.5 6.5 6.5 6.5 6.5 6.4 6.5 6.5 6.5 6.5 6.5 6.5 6.5 6.5 6.5 6.5 6.5 6.5 6.5 6.5 6.5 6.5 6.5 6.5 6.5 6.4 5.9 6.5
3.8 6.4 5.8 4.8 5.6 5.9 6.5 6.5 6.4 6.6 6.7 6.5 6.5 6.5 6.5 6.5 6.5 6.5 6.5 6.5 6.6 6.5 6.5 6.5 6.5 6.5 6.5 6.5 6.5 6.5 6.5 6.5 6.5 6.5 6.5 6.5 6.5 6.5 6.5 6.5 6.5 6.5 7.0 7.0 6.9
4.7 5.4 5.9 4.7 6.5 6.5 6.5 6.5 6.6 6.5 6.5 6.5 6.5 6.5 6.5 6.5 6.5 6.5 6.5 6.3 6.0 6.4 6.5 6.5 6.5 6.5 6.5 6.5 6.5 6.5 6.5 6.5 6.5 6.5 6.5 6.5 6.5 6.5 6.5 6.5 6.6 6.7 7.1 7.2 7.3
4.0 6.5 4.9 4.5 5.4 6.5 6.5 6.5 6.5 6.4 6.5 6.5 6.5 6.4 6.5 6.5 6.5 6.5 6.5 6.5 5.9 6.4 6.8 6.1 6.5 6.5 6.5 6.5 6.5 6.5 6.5 6.5 6.5 6.5 6.5 6.5 6.5 6.5 6.5 6.5 6.5 6.7 6.8 6.9 7.3
4.1 6.1 5.7 6.5 6.1 6.5 6.5 6.5 6.5 6.5 6.5 6.4 6.5 6.5 6.5 6.5 6.5 6.5 6.5 6.5 6.4 6.6 6.4 6.5 6.5 6.5 6.5 6.5 6.5 6.5 6.5 6.5 6.5 6.5 6.5 6.5 6.5 6.5 6.5 6.5 6.6 7.0 7.1 6.6 7.0
3.9 5.6 5.2 5.8 6.3 6.5 6.5 6.5 6.5 6.5 6.5 6.5 6.5 6.5 6.5 6.5 6.5 6.5 6.5 6.5 6.5 6.5 6.5 6.5 6.5 6.5 6.5 6.5 6.5 6.5 6.5 6.5 6.5 6.5 6.5 6.5 6.5 6.5 6.7 6.9 6.8 6.9 7.1 7.2 7.2
4.3 5.0 4.2 6.2 6.5 6.5 6.5 6.5 6.5 6.5 6.4 6.3 6.4 6.5 6.5 6.5 6.4 5.7 5.1 5.3 6.1 6.5 6.5 6.5 6.5 6.5 6.5 6.5 6.5 6.5 6.5 6.5 6.5 6.5 6.5 6.5 6.5 6.5 6.5 6.5 6.7 6.8 7.0 7.0 7.2
Wind_Speed
6 9 11 12 13 14 15 17 18 19 18 20 21 20 20 19 22 4 3 6 6 15 11 7 3 3 2 4 2 3 1 2 5 5 8 15 16 5 8 6 10 8 4 7 10
7 9 11 14 14 15 15 17 18 19 19 20 20 18 18 16 3 5 7 11 13 9 6 7 8 7 1 3 2 4 4 6 7 6 14 16 22 15 12 17 21 14 13 4 16
7 10 12 14 15 15 16 18 18 19 20 21 20 18 16 12 0 2 5 10 12 3 3 3 5 1 3 0 4 4 8 9 10 13 15 18 20 15 9 16 9 4 9 14 1
6 11 13 13 16 17 18 19 21 22 23 21 19 19 22 2 4 2 5 8 12 3 2 6 4 3 2 4 4 5 9 7 8 11 9 11 10 20 9 18 11 8 6 8 11
7 10 13 14 15 18 20 21 22 23 22 21 19 19 7 1 1 4 4 6 1 3 4 4 6 5 3 5 8 4 5 9 10 12 8 11 12 10 23 7 9 12 7 10 10
6 10 13 15 16 19 21 22 22 23 21 20 17 18 3 4 2 7 8 7 5 4 6 5 0 3 4 3 2 6 10 14 7 13 9 9 17 5 24 10 7 12 14 9 12
4 8 13 15 17 19 22 23 22 22 20 17 15 5 4 3 0 6 6 3 4 3 3 4 2 3 4 7 3 7 10 15 13 7 8 4 19 13 21 15 18 12 17 17 11
2 9 12 16 18 20 23 23 23 22 18 15 12 3 4 0 3 4 5 6 5 5 3 7 4 4 4 3 6 5 4 6 2 6 7 3 19 21 16 12 18 20 15 21 22
2 5 12 16 18 20 23 25 26 18 10 11 4 1 3 0 4 5 1 3 6 5 4 5 6 4 5 4 4 4 6 8 21 3 9 3 16 18 13 14 18 19 20 19 21
1 7 11 16 18 21 24 24 13 7 4 5 5 3 2 0 3 7 4 2 2 4 6 9 5 3 4 6 5 10 12 12 16 11 9 21 21 25 19 17 19 15 12 12 18
2 7 12 17 19 20 12 4 3 2 0 4 3 3 1 5 2 2 2 3 5 6 4 4 5 2 4 4 6 6 10 18 23 17 13 15 23 24 20 20 19 19 17 15 14
5 3 10 17 19 21 2 2 2 2 3 5 3 2 3 1 2 4 3 4 5 3 4 6 1 3 6 8 11 14 17 21 26 19 17 18 24 26 26 25 25 21 18 17 11
6 2 8 13 18 8 3 3 2 4 1 3 5 3 3 4 3 3 3 1 2 4 4 2 5 6 12 11 13 14 13 16 19 25 23 21 27 21 22 20 24 24 22 19 17
8 5 8 11 2 3 1 2 3 4 3 3 4 3 3 5 3 2 5 4 2 4 4 2 7 11 12 12 8 19 9 14 21 18 16 11 24 27 24 25 24 25 21 17 13
7 4 3 5 2 2 2 2 1 2 2 7 5 5 3 3 3 0 3 3 3 5 4 3 8 13 11 6 11 13 15 20 19 20 19 29 13 25 15 22 22 20 22 14 16
7 2 5 4 2 3 1 3 3 2 5 6 5 4 1 1 3 2 5 6 2 4 4 1 4 2 4 13 11 16 11 23 23 10 9 30 16 22 19 20 19 19 21 12 13
7 2 1 1 3 1 2 2 2 3 8 7 5 5 2 2 3 3 4 6 3 6 5 9 3 3 5 21 10 10 14 6 5 1 12 14 15 21 15 13 19 19 16 13 12
4 2 3 5 3 4 2 2 3 5 4 3 5 5 4 5 3 3 3 3 2 3 3 5 5 4 7 11 8 14 4 5 7 9 18 18 10 10 10 10 14 17 17 2 8
3 1 2 3 6 4 2 2 5 2 4 5 4 4 5 4 5 5 3 5 3 3 3 4 4 12 11 5 3 3 4 14 10 11 9 4 8 11 8 13 11 12 13 8 11
3 3 2 5 8 3 3 4 3 4 5 2 3 3 4 3 4 4 1 3 2 1 4 4 14 5 4 12 3 4 9 7 6 7 6 5 7 5 13 14 15 21 13 12 13
3 4 2 5 3 4 3 4 3 7 4 3 2 3 4 3 5 3 4 4 1 1 2 1 4 10 5 1 13 7 5 4 7 6 7 6 4 18 22 18 19 22 6 18 6
3 3 3 2 3 2 3 4 8 4 5 3 3 3 3 4 3 2 4 3 1 2 2 4 3 4 19 22 10 1 11 10 4 9 5 5 5 10 12 16 19 22 19 14 14
3 3 1 4 4 2 3 4 3 6 4 3 3 1 3 3 2 5 2 2 8 4 3 2 3 6 11 5 4 9 17 17 14 13 11 8 6 10 13 12 11 16 20 10 12
3 3 3 2 1 3 3 3 4 3 4 4 3 5 4 1 2 2 0 2 6 2 4 0 3 7 6 12 12 14 22 22 9 12 4 7 12 15 16 17 13 9 11 12 11
2 2 5 3 1 4 1 1 7 4 3 4 2 3 3 3 1 2 3 3 5 1 2 2 2 5 14 16 16 19 15 19 11 20 8 16 11 13 12 11 8 12 12 19 18
3 3 2 4 6 5 2 3 3 5 6 4 5 5 6 3 3 2 1 2 5 3 1 1 4 6 14 14 10 14 11 15 10 17 21 20 9 19 10 9 14 13 15 19 18
3 1 3 2 4 5 4 3 4 5 5 6 7 5 4 2 3 5 7 7 8 6 2 2 3 2 7 8 16 2 13 15 8 17 14 12 13 22 3 9 10 10 14 15 15
Wind_Direction
319 322 322 327 333 331 330 328 328 325 328 330 330 329 320 321 316 179 51 232 256 300 312 294 10 334 116 262 186 96 288 240 256 260 274 304 303 326 308 304 321 307 255 185 127
314 319 323 325 326 326 325 324 324 323 327 331 328 324 316 326 293 60 233 241 258 300 5 18 334 7 337 260 271 162 168 234 212 253 285 292 295 308 316 312 308 358 336 77 134
306 315 319 321 319 321 323 323 322 324 330 332 327 322 315 319 277 299 259 271 295 341 286 304 277 285 287 245 234 229 243 262 270 269 274 279 286 291 270 279 276 295 342 311 329
299 309 312 317 319 321 324 326 328 331 336 332 325 322 321 273 183 266 290 297 313 264 344 331 335 29 331 311 319 315 262 253 263 262 268 271 277 287 254 268 266 239 198 268 282
291 304 310 316 321 324 327 328 329 330 332 327 323 325 339 211 125 339 317 340 303 24 70 27 58 6 359 292 321 259 284 315 304 289 271 282 281 269 280 278 268 284 200 215 242
281 303 312 318 323 325 325 324 326 324 324 321 319 323 272 189 243 2 14 341 345 24 357 29 35 299 262 290 313 313 316 301 302 295 279 282 284 287 278 288 265 287 286 230 210
283 303 312 318 323 324 324 321 320 315 315 312 310 307 282 218 153 343 351 301 296 344 300 242 224 75 343 301 273 299 310 311 290 275 279 7 290 260 273 295 279 258 280 279 237
209 307 316 318 323 322 320 317 312 307 301 293 301 290 256 186 291 348 348 323 305 304 209 242 185 184 183 276 342 289 332 319 17 352 286 132 280 279 286 288 276 279 271 278 276
285 313 318 318 322 322 321 316 308 300 261 281 286 244 261 161 340 318 260 290 312 316 317 254 113 177 1 354 7 340 274 267 305 145 282 202 278 284 290 280 274 270 272 265 271
266 324 317 318 324 322 320 305 298 323 241 242 255 315 275 153 310 326 284 62 353 332 14 26 48 54 14 39 305 294 296 287 290 323 325 308 284 282 275 269 267 265 271 278 269
18 319 322 318 318 319 338 350 19 275 12 217 209 260 23 298 289 233 339 42 36 43 40 333 58 324 260 240 259 284 309 304 303 306 309 298 296 295 304 295 269 263 258 261 272
189 298 315 310 315 319 314 69 147 209 311 272 229 267 214 152 309 330 33 58 50 16 359 21 187 319 340 355 344 336 326 310 305 314 317 305 292 291 288 280 276 271 258 252 240
185 240 280 303 320 318 127 135 112 83 215 274 209 202 195 143 268 272 105 38 19 356 331 212 248 355 8 356 337 307 301 299 293 309 300 296 284 287 279 293 285 269 258 251 247
184 202 281 323 12 327 273 198 101 106 70 191 196 224 169 176 292 259 189 142 340 285 317 61 24 13 344 320 302 303 311 310 301 304 287 309 288 278 283 277 278 276 264 250 245
195 215 320 350 322 169 215 341 107 54 243 155 147 155 241 180 165 253 266 45 301 292 45 301 6 338 318 299 321 296 309 293 287 284 292 276 265 273 264 269 277 268 267 245 251
182 240 21 77 201 236 271 39 72 118 231 186 141 179 148 268 173 106 44 43 67 39 47 309 260 275 270 322 310 305 313 300 282 264 256 258 265 271 255 258 278 274 267 244 249
183 200 165 137 203 89 61 77 126 193 153 157 165 133 136 216 119 81 65 35 58 2 334 324 137 275 304 335 335 4 318 299 299 274 265 289 281 259 258 249 272 283 280 261 269
180 236 218 203 275 58 86 84 192 164 144 117 110 126 185 152 92 60 63 46 32 98 300 341 329 11 329 296 279 323 323 282 296 305 288 290 264 266 256 267 287 278 271 255 63
158 103 234 218 152 89 101 126 210 122 136 135 126 161 140 48 100 80 44 171 204 165 145 317 239 308 291 300 359 309 313 296 280 260 275 267 289 300 302 304 269 281 275 101 114
138 143 211 181 113 96 93 251 194 108 122 148 130 164 116 131 95 90 327 247 244 105 144 258 298 276 307 308 285 220 324 332 313 321 281 300 319 278 304 319 310 312 304 116 298
105 112 237 147 91 76 164 231 102 82 79 49 79 89 85 117 102 103 219 306 111 265 312 232 184 298 347 260 293 322 309 278 268 256 326 318 322 12 357 1 341 326 215 140 93
148 102 240 105 93 158 171 202 107 114 44 84 82 92 108 82 111 151 205 202 358 313 287 223 214 290 299 292 279 344 303 307 300 310 280 278 275 333 359 33 24 18 34 68 100
128 129 311 92 132 210 261 125 107 140 145 142 153 116 75 120 131 208 192 323 66 56 337 308 298 320 321 345 327 325 316 314 304 276 262 283 276 347 357 42 19 35 1 43 57
110 100 18 55 221 130 155 140 122 80 97 71 111 87 77 76 174 242 329 38 15 340 31 88 194 178 226 262 289 300 312 323 311 304 299 241 301 359 8 29 5 33 12 31 33
40 176 170 174 239 146 84 144 142 127 109 117 122 154 165 215 292 41 41 346 323 306 19 99 242 248 270 272 285 293 331 344 345 353 17 330 335 11 8 31 16 71 57 63 25
124 129 30 147 107 120 178 191 120 141 144 177 148 107 101 116 142 272 355 175 226 293 51 332 268 280 281 273 275 311 332 347 1 3 1 351 353 341 330 88 72 65 59 61 58
332 352 92 22 133 114 181 159 120 110 44 104 136 113 80 83 190 206 208 207 224 240 102 232 241 312 283 322 313 180 7 339 339 30 350 2 321 313 115 84 69 79 81 65 65